FW8707 Weather Reports


Display with metric or nautical units.
time (UTC)temp
F
wind
direction
speed
MPH
gust
MPH
rain 1hr
in
rain 24hr
in
rain mn
in
humidity
%
barometer
mb
20260505051511 49 287 0.0 0.0 0.00 0.07 0.07 83 1011.4
20260505051004 49 287 0.0 0.0 0.00 0.07 0.07 82 1011.3
20260505050512 49 287 0.0 0.0 0.00 0.07 0.07 82 1011.3
20260505041507 49 287 0.0 2.0 0.00 0.07 0.07 81 1011.3
20260505041005 49 287 0.0 0.0 0.00 0.07 0.07 81 1011.2
20260505040507 50 287 0.0 1.0 0.00 0.07 0.07 81 1011.2
20260505040014 49 287 0.0 2.0 0.00 0.07 0.07 81 1011.2
20260505035504 49 287 0.0 2.0 0.00 0.07 0.07 81 1011.1
20260505035004 49 287 0.0 2.0 0.00 0.07 0.07 80 1011.2
20260505034524 49 285 0.0 4.0 0.00 0.07 0.07 80 1011.2
20260505034008 49 285 0.0 4.0 0.00 0.07 0.07 81 1011.2
20260505033506 50 285 0.0 4.0 0.00 0.07 0.07 81 1011.2
20260505033018 50 279 1.0 5.0 0.00 0.07 0.07 81 1011.1
20260505032507 50 279 1.0 5.0 0.00 0.07 0.07 83 1011.2
20260505032008 50 270 0.0 0.0 0.00 0.07 0.07 83 1011.2
20260505031516 50 270 0.0 1.0 0.00 0.07 0.07 84 1011.2
20260505031007 50 270 0.0 1.0 0.00 0.07 0.07 84 1011.2
20260505030508 50 270 0.0 1.0 0.00 0.07 0.07 85 1011.2
20260505030036 50 270 0.0 1.0 0.00 0.07 0.07 85 1011.0
20260505025513 50 270 0.0 0.0 0.00 0.07 0.07 86 1010.9
20260505025008 50 270 0.0 1.0 0.01 0.07 0.07 86 1010.9
20260505023507 50 270 0.0 0.0 0.01 0.07 0.07 85 1010.6
20260505023016 50 270 0.0 0.0 0.01 0.07 0.07 85 1010.5
20260505022510 50 270 0.0 0.0 0.01 0.07 0.07 85 1010.4
20260505022008 50 270 0.0 0.0 0.01 0.07 0.07 84 1010.3
20260505021523 50 270 0.0 0.0 0.01 0.07 0.07 84 1010.3
20260505021007 50 270 0.0 1.0 0.01 0.07 0.07 83 1010.3
20260505020507 50 270 0.0 2.0 0.02 0.07 0.07 84 1010.3
20260505020019 50 270 0.0 2.0 0.02 0.07 0.07 83 1010.2
20260505015509 50 275 0.0 1.0 0.02 0.07 0.07 83 1010.4
20260505015009 50 275 0.0 1.0 0.02 0.06 0.06 82 1010.6
20260505012509 50 279 1.0 5.0 0.03 0.06 0.06 81 1010.7
20260505012011 50 285 0.0 5.0 0.03 0.06 0.06 80 1010.4
20260505011515 51 286 1.0 7.0 0.03 0.06 0.06 80 1010.4
20260505011007 51 279 1.0 9.0 0.04 0.06 0.06 80 1010.5
20260505010507 51 285 1.0 9.0 0.03 0.05 0.05 80 1010.7
20260505010020 51 279 2.0 8.0 0.03 0.05 0.05 79 1010.6
20260505005512 51 279 3.0 8.0 0.03 0.05 0.05 79 1010.6
20260505005008 52 279 3.0 9.0 0.02 0.04 0.04 78 1010.6
20260505004536 52 287 4.0 10.0 0.02 0.04 0.04 77 1010.6
20260505004010 53 279 4.0 10.0 0.02 0.04 0.04 75 1010.6
20260505003504 53 287 4.0 11.0 0.01 0.03 0.03 74 1010.7
20260505003011 54 270 4.0 11.0 0.01 0.03 0.03 71 1010.6
20260505002505 54 270 4.0 11.0 0.03 0.03 0.03 69 1010.5
20260505002008 55 270 1.0 6.0 0.03 0.03 0.03 70 1010.4
20260505001515 55 270 0.0 4.0 0.03 0.03 0.03 71 1010.3
20260505001007 55 270 0.0 6.0 0.02 0.02 0.02 71 1010.2
20260505000511 55 270 1.0 6.0 0.02 0.02 0.02 70 1010.3
20260505000023 56 270 1.0 4.0 0.02 0.02 0.02 70 1010.3
20260504235507 56 270 0.0 1.0 0.02 0.02 0.02 67 1010.1
20260504235008 56 270 0.0 1.0 0.02 0.02 0.02 64 1010.0
20260504234506 56 270 0.0 2.0 0.02 0.02 0.02 62 1010.0
20260504234003 56 270 0.0 3.0 0.02 0.02 0.02 65 1010.0
20260504233504 57 270 0.0 5.0 0.02 0.02 0.02 61 1010.0
20260504233009 58 270 0.0 8.0 0.02 0.02 0.02 59 1010.1
20260504232507 60 270 0.0 18.0 0.00 0.00 0.00 52 1010.2
20260504232005 60 270 5.0 18.0 0.00 0.00 0.00 49 1010.0
20260504231511 61 270 2.0 11.0 0.00 0.00 0.00 47 1010.0
20260504231011 62 270 0.0 9.0 0.00 0.00 0.00 43 1009.7
20260504230507 62 270 2.0 9.0 0.00 0.00 0.00 43 1009.4
20260504230018 62 270 3.0 8.0 0.00 0.00 0.00 42 1009.2
20260504225508 62 270 2.0 10.0 0.00 0.00 0.00 41 1009.0
20260504225010 63 270 3.0 10.0 0.00 0.00 0.00 41 1009.0
20260504224529 63 279 4.0 10.0 0.00 0.00 0.00 40 1008.8
20260504224011 64 279 2.0 11.0 0.00 0.00 0.00 38 1008.7
20260504223009 65 279 6.0 15.0 0.00 0.00 0.00 37 1008.7
20260504222504 66 280 5.0 15.0 0.00 0.00 0.00 36 1008.7
20260504222007 67 296 4.0 11.0 0.00 0.00 0.00 35 1008.7
20260504221513 67 96 3.0 11.0 0.00 0.00 0.00 36 1008.7
20260504221005 67 43 3.0 11.0 0.00 0.00 0.00 36 1008.7
20260504220505 66 352 2.0 11.0 0.00 0.00 0.00 37 1008.8
20260504220014 66 318 3.0 8.0 0.00 0.00 0.00 38 1008.9
20260504215509 65 296 2.0 6.0 0.00 0.00 0.00 38 1009.0
20260504215010 65 13 0.0 4.0 0.00 0.00 0.00 40 1009.0
20260504214520 64 11 1.0 4.0 0.00 0.00 0.00 39 1009.2
20260504214009 64 281 0.0 4.0 0.00 0.00 0.00 40 1009.2
20260504213509 64 286 2.0 4.0 0.00 0.00 0.00 40 1009.1
20260504213035 64 285 0.0 3.0 0.00 0.00 0.00 40 1009.0
20260504212510 63 287 0.0 3.0 0.00 0.00 0.00 40 1009.2
20260504212005 63 283 0.0 5.0 0.00 0.00 0.00 42 1009.1
20260504211507 63 283 1.0 7.0 0.00 0.00 0.00 41 1009.2
20260504211004 63 283 1.0 8.0 0.00 0.00 0.00 41 1009.1
20260504210506 63 280 2.0 10.0 0.00 0.00 0.00 40 1009.2
20260504210015 64 279 4.0 13.0 0.00 0.00 0.00 39 1009.3
20260504205507 64 320 4.0 17.0 0.00 0.00 0.00 38 1009.1
20260504205007 65 27 8.0 25.0 0.00 0.00 0.00 37 1009.1
20260504204517 64 13 7.0 25.0 0.00 0.00 0.00 37 1009.3
20260504204008 65 333 8.0 14.0 0.00 0.00 0.00 36 1009.2
20260504203513 65 259 7.0 13.0 0.00 0.00 0.00 36 1009.2
20260504203022 65 68 4.0 15.0 0.00 0.00 0.00 35 1008.8
20260504202509 64 25 2.0 15.0 0.00 0.00 0.00 37 1008.7
20260504202010 63 287 6.0 16.0 0.00 0.00 0.00 36 1008.6
20260504201527 63 284 4.0 18.0 0.00 0.00 0.00 37 1008.7
20260504201009 63 283 8.0 20.0 0.00 0.00 0.00 36 1008.9
20260504200503 63 281 8.0 20.0 0.00 0.00 0.00 36 1008.7
20260504200010 63 279 5.0 16.0 0.00 0.00 0.00 35 1008.8
20260504195506 63 279 6.0 18.0 0.00 0.00 0.00 34 1008.8
20260504195007 64 283 8.0 18.0 0.00 0.00 0.00 32 1008.7
20260504194520 66 256 6.0 17.0 0.00 0.00 0.00 29 1008.6
20260504194009 67 71 2.0 15.0 0.00 0.00 0.00 25 1008.9
20260504193020 67 300 1.0 30.0 0.00 0.00 0.00 25 1008.1
20260504192508 68 289 7.0 30.0 0.00 0.00 0.00 26 1008.5
20260504192009 68 254 0.0 14.0 0.00 0.00 0.00 25 1008.2
20260504191527 68 125 4.0 14.0 0.00 0.00 0.00 26 1007.9
20260504191009 68 270 6.0 18.0 0.00 0.00 0.00 28 1008.2
20260504190510 69 270 6.0 18.0 0.00 0.00 0.00 27 1007.9
20260504190028 69 322 5.0 15.0 0.00 0.00 0.00 26 1008.0
20260504185509 69 279 8.0 16.0 0.00 0.00 0.00 26 1008.1
20260504185007 69 275 9.0 16.0 0.00 0.00 0.00 26 1008.0
20260504184529 69 275 6.0 16.0 0.00 0.00 0.00 27 1008.1
20260504184010 70 292 6.0 14.0 0.00 0.00 0.00 27 1008.0
20260504183508 70 162 7.0 14.0 0.00 0.00 0.00 25 1008.1
20260504183019 70 292 4.0 12.0 0.00 0.00 0.00 27 1008.1
20260504182512 70 283 7.0 12.0 0.00 0.00 0.00 27 1008.1
20260504182010 70 282 4.0 9.0 0.00 0.00 0.00 26 1008.0
20260504181523 70 296 4.0 10.0 0.00 0.00 0.00 27 1008.1
20260504181010 70 296 2.0 10.0 0.00 0.00 0.00 26 1008.1
20260504180512 70 270 3.0 10.0 0.00 0.00 0.00 27 1008.2
20260504180032 70 99 2.0 6.0 0.00 0.00 0.00 26 1008.1
20260504175511 70 285 1.0 7.0 0.00 0.00 0.00 25 1008.2
20260504175010 70 281 2.0 7.0 0.00 0.00 0.00 26 1008.3
20260504174526 70 293 1.0 6.0 0.00 0.00 0.00 25 1008.3
20260504174007 70 291 2.0 7.0 0.00 0.00 0.00 26 1008.4
20260504173506 70 280 1.0 7.0 0.00 0.00 0.00 26 1008.5
20260504173017 70 279 2.0 7.0 0.00 0.00 0.00 26 1008.5
20260504172507 70 287 0.0 6.0 0.00 0.00 0.00 27 1008.5
20260504172008 69 279 1.0 9.0 0.00 0.00 0.00 26 1008.5
20260504171519 70 282 1.0 9.0 0.00 0.00 0.00 26 1008.5
20260504171011 69 301 2.0 8.0 0.00 0.00 0.00 26 1008.5
20260504170507 69 293 1.0 8.0 0.00 0.00 0.00 26 1008.5
20260504151008 62 149 0.0 2.0 0.00 0.00 0.00 35 1008.8
20260504150511 61 181 0.0 3.0 0.00 0.00 0.00 37 1008.8
20260504141013 52 270 0.0 3.0 0.00 0.00 0.00 43 1009.1
20260504140509 51 270 0.0 3.0 0.00 0.00 0.00 44 1009.1
20260504130510 47 275 0.0 5.0 0.00 0.00 0.00 46 1009.3
20260504110508 47 279 2.0 5.0 0.00 0.00 0.00 46 1009.5
20260504100510 47 275 1.0 7.0 0.00 0.00 0.00 46 1009.8
20260504082007 49 275 1.0 7.0 0.00 0.00 0.00 44 1010.5
20260504081517 49 275 2.0 7.0 0.00 0.00 0.00 45 1010.6
20260504081010 49 275 1.0 5.0 0.00 0.00 0.00 44 1010.7
20260504080508 49 275 1.0 4.0 0.00 0.00 0.00 44 1010.7